Temp
24 24 25 24 23 21 22 24 26 24 23 23 23 23 21 19 21 21 18 18 19 18 18 19 20 19 19 19 19 19 19 18 18 18 18 18 18 18 18 18 18 18 17 16 17 18 18 17 18
24 23 24 21 22 22 23 25 24 24 23 24 23 22 21 20 19 18 18 18 18 18 18 19 19 19 19 19 19 18 18 18 18 18 18 18 18 18 19 19 19 19 19 18 18 18 18 18 18
23 24 22 21 19 21 23 25 23 24 24 25 24 23 23 20 19 18 18 18 18 18 18 19 19 19 19 19 19 18 18 18 18 18 18 19 19 19 19 19 19 19 19 18 18 18 18 18 17
23 22 20 22 21 22 24 25 24 24 24 24 23 22 22 21 19 18 18 18 17 18 18 18 19 19 19 19 18 19 19 18 18 19 19 19 19 19 19 19 19 19 18 18 18 18 18 17 17
23 20 22 22 23 24 25 25 25 24 23 23 23 22 20 18 19 18 17 17 18 18 18 19 19 19 19 19 19 19 19 19 19 19 19 19 19 19 18 18 18 18 18 18 18 17 17 17 17
20 19 21 21 24 23 24 24 24 23 23 23 22 21 19 17 18 17 18 18 19 19 19 19 19 19 19 19 19 19 19 19 19 19 19 19 19 18 18 18 18 18 17 17 17 17 17 17 17
22 21 22 22 21 23 25 26 23 23 23 23 23 19 18 18 18 18 18 19 19 20 20 20 20 20 19 19 19 19 19 19 19 19 19 18 18 18 18 18 18 18 18 18 17 17 17 17 17
21 22 23 23 22 22 26 25 24 24 22 23 22 19 17 19 17 18 19 20 20 20 21 20 20 20 19 19 20 20 20 19 19 18 18 18 18 18 18 18 18 17 18 18 18 17 17 17 17
22 21 21 23 23 23 25 24 24 23 22 23 22 21 21 19 18 17 18 18 19 20 20 20 20 20 20 20 20 19 19 19 18 18 18 18 18 18 18 18 18 17 17 18 17 17 17 17 17
22 19 22 23 24 23 24 24 23 23 22 20 19 19 19 18 17 17 17 17 18 19 19 20 20 20 20 20 20 19 19 19 18 18 18 18 18 18 18 18 17 17 17 17 17 17 17 17 17
22 23 24 24 24 24 23 23 23 21 21 21 20 19 19 18 18 18 19 19 20 20 20 20 20 20 20 20 20 19 19 19 19 18 18 18 18 18 18 17 17 17 17 17 17 17 16 16 16
25 25 24 26 23 23 23 23 22 23 22 21 21 20 19 19 19 19 19 19 19 19 20 21 20 20 20 20 20 20 20 19 19 19 18 18 18 18 18 17 17 17 17 16 16 16 16 16 16
25 25 24 24 24 24 24 25 24 24 20 21 21 21 20 20 20 21 22 21 20 19 20 21 20 20 20 20 20 20 20 19 19 19 18 18 18 18 18 17 17 17 17 16 16 16 16 16 15
24 24 24 25 24 25 24 25 25 21 19 20 21 21 20 20 21 21 21 21 20 20 21 21 20 20 20 20 21 20 20 19 19 19 18 18 18 18 17 17 17 16 16 15 15 15 15 14 14
23 24 25 25 25 26 24 25 23 20 20 21 21 21 20 21 22 21 21 21 21 21 21 20 20 20 20 20 20 19 19 19 19 18 18 18 17 16 16 15 15 15 14 14 14 14 14 14 13
24 21 22 24 25 23 24 22 24 19 20 20 20 20 20 19 18 21 22 22 21 21 20 19 19 19 19 19 19 18 18 18 18 17 17 16 15 15 15 14 14 13 13 13 13 13 13 12 12
19 22 23 24 24 24 24 23 23 18 21 20 19 17 17 15 15 16 18 20 21 20 19 18 18 17 17 17 17 17 18 17 17 16 15 15 14 14 14 13 12 12 12 12 12 11 11 11 11
22 23 21 22 23 23 23 22 22 19 19 17 14 14 14 14 14 15 16 17 17 17 17 17 16 16 16 17 17 17 16 15 15 15 14 14 14 13 13 13 12 11 11 11 11 10 10 10 8
23 21 21 22 23 22 23 20 17 18 15 14 14 15 14 14 14 14 14 16 17 16 16 17 17 17 17 17 16 16 14 14 14 14 13 13 13 13 12 11 11 10 9 8 8 8 8 8 8
22 21 22 23 22 22 20 17 16 16 15 15 15 15 15 14 14 14 15 16 17 17 17 18 18 18 17 17 16 15 14 14 14 13 13 12 12 11 10 10 10 9 8 8 7 7 7 7 6
21 21 22 23 21 20 20 18 16 17 16 16 15 15 15 15 14 13 13 16 17 17 18 18 18 18 17 17 17 15 14 13 12 11 11 10 10 10 10 9 8 8 7 7 6 6 5 5 5
22 22 22 22 20 19 20 17 18 17 16 16 15 14 14 14 13 14 13 14 16 17 17 17 17 17 17 17 17 17 16 13 11 10 10 10 10 10 9 8 8 7 6 6 5 5 5 4 3
22 22 22 22 19 19 19 16 17 17 16 16 15 14 14 14 14 13 14 15 16 15 16 16 16 16 15 15 15 15 14 13 11 11 10 10 9 9 8 8 7 6 5 5 5 4 4 3 3
23 21 18 17 17 16 19 17 16 16 16 16 16 15 15 14 14 15 15 16 15 15 15 15 15 15 15 15 14 13 13 11 11 10 11 11 10 9 8 7 7 6 5 5 4 4 3 3 3
20 18 15 16 14 15 18 18 17 18 17 17 15 14 14 13 13 13 14 14 14 14 14 15 15 15 14 13 13 12 11 11 11 11 11 10 9 9 8 7 7 6 5 4 4 4 3 3 3
20 18 14 19 15 15 17 17 17 17 16 16 15 14 14 13 13 13 13 13 14 15 14 14 14 13 13 12 12 11 11 11 11 10 10 9 9 8 7 7 6 5 5 4 4 3 3 3 3
21 17 18 14 12 13 15 18 18 18 16 16 16 15 14 12 11 11 12 13 14 14 14 14 13 12 11 11 11 11 11 11 10 10 9 9 8 7 6 6 5 5 4 4 3 3 3 2 2
20 19 17 13 16 17 16 17 15 16 16 16 15 13 12 11 11 10 12 13 13 13 13 14 13 12 12 12 12 12 11 10 10 9 9 9 8 7 6 5 5 4 4 4 3 3 3 2 2
19 18 16 15 12 13 12 14 15 16 16 14 13 12 12 11 11 10 11 12 12 12 13 13 12 12 12 12 11 11 10 9 9 9 9 8 7 5 5 4 3 2 3 3 3 3 3 2 1
20 19 16 12 16 10 10 13 16 15 14 14 13 13 11 10 10 10 11 12 12 12 12 12 11 11 11 11 10 9 9 8 8 7 7 6 5 5 5 3 2 1 2 3 3 3 2 1 0
Height
788 784 783 786 812 817 821 807 785 791 796 788 786 791 802 806 810 821 810 812 814 818 823 825 827 828 829 830 831 833 834 834 835 836 837 839 839 838 838 838 839 838 839 840 838 838 837 837 836
787 784 782 791 818 829 814 789 794 787 790 786 789 797 801 812 806 809 816 817 817 820 823 826 828 829 831 832 833 835 836 836 836 838 839 840 840 840 840 840 841 840 840 841 840 840 839 840 838
786 783 788 807 824 826 813 786 791 788 784 787 799 800 805 815 807 811 815 818 821 823 823 827 828 830 832 834 835 837 837 837 838 838 839 840 840 841 842 841 843 841 842 841 841 841 841 841 838
786 784 793 811 821 806 797 786 784 789 788 789 795 812 806 812 812 811 817 820 823 825 826 828 829 831 833 835 837 838 838 839 839 840 840 842 842 843 843 843 843 843 841 841 843 842 840 842 839
785 790 808 814 810 797 785 785 782 790 793 792 794 811 815 816 812 814 819 822 823 825 826 830 832 833 834 836 838 839 840 841 841 841 842 843 844 845 845 845 845 846 845 843 844 842 843 841 841
790 795 817 823 807 796 788 786 790 790 792 793 800 807 819 816 813 816 819 823 825 825 829 831 833 834 836 837 839 840 840 842 842 842 844 844 845 847 847 847 846 845 846 845 847 844 844 842 842
791 802 810 811 814 800 794 785 795 790 794 798 796 817 820 819 817 818 821 824 827 829 830 833 834 834 837 838 840 839 840 841 842 843 844 844 845 848 848 848 850 847 847 846 847 847 845 844 843
787 794 803 804 810 814 790 789 789 791 797 791 793 815 823 814 818 820 823 826 827 829 832 834 834 835 837 838 839 839 841 842 843 844 846 847 850 849 848 849 849 849 848 847 847 847 846 846 844
785 807 813 801 801 803 786 798 790 787 792 793 793 796 801 811 818 821 823 826 828 830 833 834 835 834 836 839 840 841 842 842 843 845 848 848 849 848 849 848 850 849 849 848 848 847 846 846 845
793 812 803 785 782 790 787 789 791 794 799 803 799 800 806 815 817 818 822 825 826 829 832 833 833 835 838 840 841 841 842 843 845 846 847 848 849 849 850 848 849 850 849 848 848 846 846 846 845
790 794 779 777 777 776 791 793 790 798 805 798 802 806 809 813 816 818 822 821 821 827 830 832 835 837 839 839 839 840 842 842 845 846 846 848 848 848 849 849 849 849 849 848 848 845 845 845 843
787 778 778 773 779 784 792 788 794 792 793 790 792 799 808 813 814 817 819 822 824 827 828 831 834 836 837 836 838 839 841 843 843 844 846 848 849 849 849 850 849 849 849 848 847 845 843 843 841
784 780 775 775 777 782 783 787 788 791 790 794 798 805 806 810 812 814 816 819 826 828 827 830 834 836 836 836 838 839 841 841 844 846 847 848 848 849 850 850 849 847 847 846 844 843 841 840 839
777 780 781 777 780 780 787 787 785 796 794 798 799 804 806 807 808 813 815 819 822 824 825 827 833 833 835 837 837 839 842 841 842 846 848 849 849 849 848 849 848 847 845 844 842 841 840 838 837
780 791 785 785 782 785 784 795 798 795 797 798 800 801 805 807 811 810 816 818 818 818 823 828 832 833 834 836 838 841 842 843 843 846 848 849 848 849 848 848 847 846 845 843 841 840 837 835 834
789 798 811 791 788 789 791 815 792 797 798 801 802 805 809 814 815 814 816 817 819 821 826 833 836 839 839 837 839 841 843 844 843 846 847 847 848 848 848 847 847 846 844 841 839 837 833 832 830
806 816 807 799 789 791 794 805 795 798 798 802 809 813 815 817 818 816 813 813 819 822 827 833 837 838 841 841 840 841 842 843 844 845 847 849 849 849 847 847 847 845 842 840 837 836 833 831 828
811 809 811 810 798 795 802 803 797 800 804 814 818 817 819 821 822 818 814 815 817 824 828 834 836 837 842 840 841 843 844 845 847 848 849 850 849 849 848 848 846 845 842 839 837 834 832 829 826
794 806 810 803 792 801 804 814 816 810 815 820 821 820 822 823 824 822 819 818 821 826 830 835 836 839 841 843 845 845 847 850 850 851 851 851 851 850 850 849 847 844 842 840 838 834 831 829 826
798 808 807 799 797 801 815 827 821 821 822 822 821 824 826 828 830 827 824 825 827 832 834 837 838 841 844 847 848 849 851 852 853 853 852 851 851 850 849 847 844 842 841 839 836 834 832 831 828
808 810 807 805 803 806 814 831 834 828 824 825 829 831 833 833 834 834 833 834 836 837 839 840 842 844 846 847 849 851 852 853 853 853 852 851 850 848 847 845 844 842 841 839 837 835 833 831 829
810 799 801 805 817 835 818 855 836 834 836 835 836 836 835 836 837 836 839 839 839 840 841 842 843 845 846 847 848 849 849 850 851 852 851 849 848 847 845 843 842 840 839 837 835 834 833 832 830
807 800 806 810 825 827 827 849 842 838 843 839 838 836 835 837 837 837 838 838 841 842 842 843 844 846 847 848 848 847 846 847 849 850 849 849 847 845 843 841 839 837 835 834 833 832 831 830 828
794 807 819 826 832 854 830 842 849 843 836 837 837 837 837 839 839 838 840 839 841 844 843 844 845 846 846 845 845 845 846 847 848 849 847 846 844 843 840 838 836 834 833 833 831 830 829 827 825
806 823 855 855 864 859 832 838 840 828 827 831 837 838 838 838 838 840 842 841 841 842 843 846 846 845 845 845 845 846 846 847 847 846 845 843 841 839 837 835 833 832 831 830 829 828 827 825 822
811 821 855 841 864 857 834 842 837 824 823 828 833 834 836 839 841 844 842 841 841 841 845 846 846 846 846 846 846 847 847 845 844 842 841 839 837 835 833 831 830 828 827 827 827 826 825 822 820
809 830 820 852 865 867 852 835 828 826 829 831 832 832 836 839 839 840 840 840 841 843 845 846 846 845 846 847 846 845 843 842 840 838 837 834 832 830 829 828 827 825 824 822 823 822 821 819 816
807 812 838 854 859 853 852 844 847 835 834 831 836 836 838 839 839 841 841 842 844 845 845 845 845 845 846 846 845 843 841 840 838 836 834 831 829 827 825 826 827 824 823 820 819 817 817 815 813
818 823 834 843 862 868 876 854 829 827 828 832 835 836 836 840 842 844 845 844 845 845 845 845 846 846 845 844 843 842 840 838 836 834 831 828 825 826 826 824 825 825 819 818 815 813 812 811 810
809 817 831 863 849 877 878 857 822 823 825 828 832 834 837 840 843 843 843 843 844 845 845 845 845 845 844 842 841 839 837 836 834 831 828 826 824 822 821 818 817 818 815 816 813 811 810 808 807
Wind_Speed
8 1 4 4 1 4 3 5 2 1 4 5 4 4 7 4 2 2 7 10 28 26 23 21 21 20 20 19 19 18 18 17 16 14 13 12 11 11 11 11 11 11 11 11 12 12 12 11 12
4 2 4 2 3 2 3 4 7 7 11 10 9 5 9 5 4 12 12 23 27 27 24 22 21 20 20 19 18 17 16 15 14 13 12 12 11 11 11 11 10 10 12 12 13 13 12 12 12
4 1 4 3 2 4 3 1 8 13 12 7 5 5 4 2 10 11 15 27 26 25 25 22 21 20 20 18 17 16 15 14 14 13 12 12 11 11 10 10 10 11 12 12 12 12 12 11 12
5 4 4 4 6 7 4 2 11 8 5 7 14 5 4 3 5 13 31 28 27 25 24 22 20 19 18 17 16 15 14 13 13 13 12 12 11 10 10 10 10 10 11 12 12 13 12 12 12
0 3 3 1 3 4 4 4 9 5 6 9 7 7 3 2 18 31 28 28 29 26 23 21 19 18 17 16 15 14 14 12 13 13 12 12 11 11 11 10 11 11 11 12 13 13 14 13 12
3 2 4 3 5 6 5 9 4 4 6 12 10 7 3 13 29 27 29 28 28 26 23 20 17 16 15 15 14 14 13 13 13 12 12 12 13 11 12 13 13 12 12 14 14 14 15 16 15
4 3 3 4 2 6 4 4 2 11 6 5 10 5 4 5 24 30 30 28 26 24 22 19 17 16 15 15 15 15 14 13 13 13 12 12 10 10 10 11 10 10 10 12 13 13 14 15 15
4 3 2 3 8 4 5 3 4 4 2 8 10 7 7 10 27 31 29 27 26 23 22 20 17 16 16 16 15 15 15 14 13 11 9 8 7 7 6 7 6 6 7 8 8 9 10 11 13
2 4 2 3 14 10 8 6 2 2 8 1 1 6 18 32 32 31 29 26 24 23 23 20 18 18 17 17 17 16 14 13 11 9 6 5 4 3 2 3 3 4 4 5 6 7 8 10 12
3 4 8 7 7 9 5 9 9 5 2 5 7 13 29 28 29 25 21 22 26 26 24 22 21 19 19 19 17 15 14 12 9 7 5 5 4 3 2 0 1 4 6 7 9 10 10 11 15
5 3 2 3 5 10 9 5 3 12 2 7 15 16 19 24 21 23 22 32 34 29 26 24 20 19 18 18 17 15 13 12 10 7 5 5 5 5 3 2 3 5 8 10 10 10 11 14 17
3 3 5 3 6 7 8 8 7 1 9 12 21 22 19 14 17 21 23 26 28 28 28 24 23 21 19 16 15 15 15 14 12 9 7 6 3 2 1 2 5 7 9 10 10 11 14 16 18
5 5 3 6 8 5 6 5 7 4 8 10 15 19 18 14 18 25 32 32 28 29 28 26 24 20 17 14 15 15 14 15 12 10 8 6 6 5 3 2 5 7 9 11 13 14 16 18 20
6 3 4 4 5 2 6 3 2 4 8 12 18 16 14 15 23 23 22 29 30 31 32 29 25 19 18 15 12 13 14 12 13 12 9 7 7 5 3 3 4 6 10 11 13 15 16 17 19
6 6 5 3 1 3 5 3 4 6 11 17 17 16 12 15 18 17 21 26 33 36 35 29 26 19 16 13 9 9 11 10 9 11 8 6 4 2 1 3 5 9 11 13 15 18 20 21 21
4 5 3 3 4 4 5 7 2 9 14 15 13 9 4 6 6 2 8 20 31 33 33 27 22 11 10 11 7 6 7 5 5 8 5 2 4 6 4 5 9 11 13 16 19 22 24 26 27
7 2 2 3 3 2 3 4 3 9 13 12 5 7 7 7 13 10 5 17 27 29 30 24 15 5 3 4 10 12 10 10 11 12 11 9 9 10 10 13 14 15 18 20 22 23 24 26 29
4 1 2 5 5 4 1 9 2 8 6 7 7 8 8 9 7 13 19 19 23 21 20 20 11 12 10 15 17 17 19 18 15 14 12 10 11 11 13 15 17 20 22 24 25 26 27 26 22
2 2 3 3 1 5 3 6 8 3 9 9 8 11 10 11 7 17 24 27 26 20 16 10 11 12 15 18 16 16 20 16 15 13 10 10 10 12 14 16 18 20 22 21 21 22 21 22 23
5 6 3 1 5 6 6 8 11 8 5 6 12 12 11 8 9 17 29 31 27 23 22 19 18 16 14 13 14 11 11 11 9 7 6 7 8 11 14 18 19 20 23 23 23 21 19 15 18
4 4 3 3 4 6 5 5 7 6 10 10 8 8 8 11 11 9 18 24 23 23 21 20 18 14 11 9 8 10 9 5 4 4 6 8 10 14 17 15 13 17 22 19 16 15 16 15 15
2 1 3 3 4 3 3 2 4 4 7 7 6 6 8 9 9 13 14 21 22 22 20 18 16 13 10 7 5 5 5 7 6 5 5 6 11 15 14 12 13 17 15 9 9 11 12 12 14
3 2 3 3 3 3 4 5 2 5 2 4 5 5 7 8 11 9 16 23 20 17 16 14 14 12 10 8 4 5 7 6 5 2 4 10 12 13 12 11 14 16 9 7 9 10 11 12 12
1 4 6 4 3 3 3 4 4 6 6 6 4 4 5 6 6 9 13 16 15 13 14 13 11 9 7 6 6 7 8 8 4 1 8 14 15 14 12 10 12 11 8 9 10 11 11 12 12
5 5 2 3 3 4 5 3 5 5 5 6 7 7 7 6 5 4 7 11 11 13 13 9 8 9 7 6 6 5 4 3 3 8 12 14 15 16 14 12 11 8 8 8 10 11 12 12 12
3 4 4 5 3 3 5 2 4 1 10 11 8 9 6 6 5 3 7 12 14 13 8 7 9 7 7 7 7 5 2 6 9 12 14 15 16 17 14 13 9 7 8 9 11 12 14 13 13
1 3 3 6 3 3 2 2 6 2 11 10 12 9 7 6 7 7 13 13 14 10 5 2 2 6 8 6 3 4 9 11 14 14 15 17 18 17 17 13 11 10 10 9 12 13 15 14 13
4 4 3 4 2 1 3 3 4 8 7 8 5 8 7 7 7 6 12 11 8 6 4 3 3 4 2 4 10 11 12 14 16 17 19 20 20 21 18 14 12 13 12 10 10 10 11 13 13
4 2 6 5 3 4 1 5 5 10 8 8 6 7 10 9 7 6 10 9 6 5 4 1 5 3 5 8 11 14 16 18 16 18 21 22 23 17 13 10 11 18 15 11 9 9 13 11 9
1 3 4 4 2 1 3 5 3 6 9 10 11 8 6 7 6 6 7 7 5 3 1 7 1 4 7 10 12 13 11 14 18 21 22 24 20 16 16 16 16 15 16 11 11 13 11 9 11
Wind_Direction
305 307 95 58 51 68 239 244 125 214 36 332 57 96 105 41 14 148 161 152 150 148 149 141 135 132 127 126 125 124 122 118 113 109 104 101 93 89 83 78 71 67 64 58 57 51 48 42 36
296 139 84 70 100 276 261 222 149 128 132 92 68 57 29 65 53 104 124 151 151 149 146 141 138 134 132 130 129 128 125 120 116 111 107 100 92 84 78 71 68 66 63 57 51 46 43 39 37
224 217 90 104 125 215 262 28 130 137 140 64 100 34 48 18 113 134 159 151 152 149 144 141 139 137 135 132 131 130 126 121 119 115 109 101 94 86 78 71 63 61 56 51 47 41 34 28 32
232 22 45 109 241 259 234 150 137 126 96 75 111 45 77 122 167 150 155 155 151 146 141 142 140 138 134 133 135 134 127 125 119 113 106 100 90 84 78 71 62 57 54 47 36 30 25 16 21
4 47 94 152 244 261 116 105 141 105 100 143 133 146 94 25 143 148 152 154 148 145 142 142 140 137 137 139 139 136 129 126 119 114 106 96 91 90 78 71 60 52 47 46 41 34 22 19 21
41 116 73 56 335 341 43 81 311 78 101 102 90 87 31 140 138 152 155 152 147 141 142 141 141 139 140 142 141 136 130 128 123 117 108 104 102 94 81 73 65 58 49 56 36 35 32 33 36
117 106 164 200 193 16 346 86 237 121 133 110 137 99 128 180 150 152 151 146 141 141 141 141 140 142 146 142 141 135 135 137 132 126 117 116 106 104 86 78 61 60 53 49 42 36 30 27 20
108 84 173 210 129 356 301 71 182 158 149 131 141 155 177 187 158 151 146 144 145 145 144 143 142 144 145 144 143 143 139 137 133 139 130 119 108 106 95 80 68 53 45 42 41 27 15 9 6
106 49 266 217 140 178 159 185 234 349 130 12 338 125 151 160 157 150 148 150 152 158 158 152 147 147 149 151 150 146 139 138 140 148 150 143 146 121 108 102 62 31 21 10 355 351 348 351 353
128 163 214 191 166 170 152 161 150 98 89 24 67 80 135 152 153 147 155 160 168 172 171 167 163 157 157 158 156 153 152 149 153 156 165 168 191 201 227 223 329 324 333 335 328 334 334 341 348
195 229 240 265 206 129 156 163 102 128 337 182 145 146 154 157 158 156 167 174 177 176 176 179 174 172 169 166 163 165 171 166 166 172 191 212 235 221 246 267 323 340 347 354 352 357 353 347 347
220 260 240 95 126 121 167 149 120 135 194 164 153 159 158 167 167 169 176 186 185 183 184 183 183 184 183 177 183 181 181 189 188 190 198 217 208 263 266 345 5 357 354 357 3 355 346 340 337
143 204 37 104 90 96 129 122 151 168 132 144 140 161 172 171 174 181 185 191 189 191 190 189 191 192 187 192 195 199 199 202 206 206 202 214 233 235 241 309 327 322 329 330 333 332 331 333 336
150 124 107 79 115 103 112 89 66 38 131 143 156 175 177 181 187 190 182 195 194 194 194 193 192 184 178 182 177 196 210 213 203 207 211 217 231 237 237 262 305 330 338 339 339 344 343 339 335
117 80 44 355 56 117 110 27 172 145 159 160 179 183 185 200 196 202 195 193 195 197 195 190 180 173 171 170 170 179 171 200 214 204 224 232 253 254 323 35 8 2 356 349 342 337 337 337 338
77 56 110 271 146 352 81 250 217 161 155 181 185 191 176 47 60 160 216 206 197 197 193 182 176 159 158 152 143 164 171 140 175 202 212 168 108 92 68 30 21 10 356 349 346 346 342 338 337
17 174 152 331 213 89 103 253 246 174 184 177 110 80 84 71 46 66 149 194 194 192 185 178 165 148 230 88 96 99 113 115 102 112 107 100 86 64 45 36 22 5 356 351 350 340 341 333 330
228 201 200 209 235 80 335 264 283 172 113 119 100 93 86 78 43 79 106 128 147 159 166 164 161 118 105 117 99 93 91 94 98 96 88 71 50 32 19 9 1 355 351 346 340 339 336 338 341
158 119 143 235 40 94 228 23 1 37 95 106 106 107 102 91 77 79 91 112 118 119 120 104 116 103 98 99 96 91 93 92 92 82 65 44 28 14 4 2 358 356 0 1 360 1 359 354 345
78 131 93 128 34 97 80 34 27 36 89 115 124 115 111 100 79 78 92 98 102 104 104 104 98 102 106 107 100 92 99 91 85 78 53 31 15 9 7 2 0 4 2 356 356 357 357 349 351
37 83 36 119 28 44 103 33 24 20 80 93 77 99 105 113 107 87 94 110 120 122 121 117 115 115 109 95 95 105 122 122 109 84 60 36 9 359 354 360 10 4 358 352 348 355 357 347 348
58 321 51 52 66 178 62 214 37 9 50 72 103 113 120 124 123 135 142 140 139 138 139 137 136 136 141 154 181 201 209 181 158 115 57 12 351 349 356 354 354 352 353 355 7 354 356 359 349
188 148 165 140 105 81 12 85 235 104 93 155 154 154 151 157 161 163 161 150 143 139 145 146 146 148 152 162 174 178 158 146 142 95 346 334 334 340 342 340 343 343 349 353 349 351 336 339 328
109 92 44 50 86 52 329 123 231 195 187 176 173 182 171 180 178 152 152 137 127 129 119 118 129 128 148 159 158 166 161 157 162 267 319 321 316 313 311 317 329 337 336 329 326 330 322 325 327
71 72 6 15 12 208 328 71 220 235 179 168 158 177 197 205 178 154 163 131 122 110 109 116 142 155 167 164 155 153 153 160 291 299 303 303 299 296 291 292 307 308 309 311 320 314 310 308 311
49 134 149 182 183 231 346 346 280 216 126 139 170 183 170 135 138 142 109 106 100 104 116 146 165 161 175 177 166 164 246 293 297 295 291 284 281 277 261 264 273 276 283 298 298 295 296 295 299
164 50 154 105 13 69 264 22 19 21 127 152 179 175 148 124 111 111 107 100 97 101 104 96 159 153 165 165 157 310 304 292 287 279 274 280 279 266 261 265 264 268 277 273 280 282 286 294 295
126 143 60 10 117 182 289 223 216 211 209 197 146 133 126 117 117 107 104 103 104 94 50 5 249 198 203 310 315 299 282 284 288 279 282 287 292 278 258 264 274 270 280 272 273 285 293 299 298
4 40 58 106 108 152 187 261 213 195 184 175 154 141 139 143 134 122 116 104 99 78 42 239 163 206 285 302 310 302 303 304 297 297 308 299 290 281 277 287 299 306 283 267 271 287 303 286 277
172 125 114 106 201 61 145 274 355 194 162 158 165 160 130 112 117 99 77 64 65 50 18 146 266 336 323 303 305 319 335 334 327 324 323 307 297 282 265 263 267 289 267 267 287 299 279 277 290